Home > Weather > Palermo > Past weeks

Flag for Italy Weather for the Past 2 Weeks in Palermo, Italy

Now
63 °F

Scattered clouds.


Feels Like: 63 °F
Forecast: 54 / 58 °F
Wind: 12 mph from Northwest

Location: Palermo / Punta Raisi

Current Time: May 1, 2016 at 6:22:11 PM

Latest Report: May 1, 2016 at 5:50 PM


Visibility: N/A

Pressure: 29.95 "Hg

Humidity: 68%

Dew Point: 52 °F

Location of PalermoLocation

Historic Weather in Palermo — Graph

°F

Palermo Temperature Yesterday

Maximum temperature yesterday: 72 °F (at 4:20 PM)
Minimum temperature yesterday: 57 °F (at 6:50 AM)
Average temperature yesterday: 65 °F

High & Low Weather Summary for the Past Weeks

 TemperatureHumidityPressure
High75 °F (Apr 28, 5:20 PM)94% (Apr 17, 10:50 PM)30.24 "Hg (Apr 17, 10:50 PM)
Low46 °F (Apr 22, 7:20 PM)29% (Apr 19, 12:20 PM)29.74 "Hg (Apr 24, 7:50 AM)
Average63 °F73%29.98 "Hg
* Reported Apr 16 4:20 PM — May 1 4:50 PM, Palermo, Weather by CustomWeather, © 2016

Note: Actual official high and low records may vary slightly from our data, if they occured in-between our weather recording intervals... More about our weather records

Advertising

Palermo Weather History for the Previous 24 Hours

Scroll right to see more
 ConditionsComfort  
Time TempWeatherWind HumidityBarometerVisibility
4:50 PM
Sun, May 1
63 °FScattered clouds.12 mph73%29.95 "HgN/A
4:20 PM64 °FPassing clouds.9 mph68%29.95 "HgN/A
3:50 PM64 °FPassing clouds.5 mph64%29.95 "HgN/A
3:20 PM64 °FPassing clouds.3 mph68%29.95 "HgN/A
2:50 PM64 °FPassing clouds.2 mph64%29.95 "HgN/A
2:20 PM64 °FPassing clouds.3 mph68%29.95 "HgN/A
1:50 PM63 °FScattered clouds.3 mph68%29.95 "HgN/A
1:20 PM63 °FScattered clouds.6 mph68%29.98 "HgN/A
12:50 PM63 °FScattered clouds.6 mph73%29.98 "HgN/A
12:20 PM63 °FScattered clouds.7 mph73%29.98 "HgN/A
11:50 AM61 °FScattered clouds.8 mph77%29.98 "HgN/A
11:20 AM61 °FBroken clouds.12 mph77%29.98 "HgN/A
10:50 AM59 °FLight rain. Partly sunny.8 mph88%29.98 "Hg4 mi
10:20 AM59 °FLight rain. Partly sunny.3 mph94%29.95 "Hg4 mi
9:50 AM59 °FLight rain. Broken clouds.3 mph88%29.95 "Hg4 mi
9:20 AM59 °FLight rain. Broken clouds.8 mph88%29.95 "Hg4 mi
8:50 AM59 °FLight rain. Partly sunny.8 mph88%29.95 "HgN/A
8:20 AM59 °FLight rain. Partly sunny.10 mph88%29.98 "Hg6 mi
7:50 AM59 °FRain. Scattered clouds.14 mph88%29.95 "Hg4 mi
7:20 AM61 °FLight rain. Scattered clouds.21 mph83%29.95 "Hg6 mi
6:20 AM61 °FRain. Passing clouds.15 mph88%29.95 "Hg4 mi
5:50 AM61 °FRain. Passing clouds.21 mph83%29.92 "Hg5 mi
5:20 AM63 °FRain. Passing clouds.21 mph77%29.92 "Hg6 mi
4:20 AM63 °FRain showers. Passing clouds.18 mph73%29.95 "Hg4 mi
3:50 AM66 °FPassing clouds.20 mph56%29.95 "HgN/A
3:20 AM66 °FClear.20 mph56%29.95 "Hg10 mi
2:50 AM66 °FClear.14 mph56%29.95 "Hg10 mi
2:20 AM68 °FPassing clouds.15 mph53%29.95 "HgN/A
1:50 AM66 °FPassing clouds.13 mph60%29.92 "HgN/A
1:20 AM64 °FPassing clouds.10 mph64%29.92 "HgN/A
12:50 AM66 °FClear.9 mph60%29.95 "Hg10 mi
12:20 AM64 °FClear.9 mph68%29.95 "Hg10 mi
11:50 PM
Sat, Apr 30
66 °FClear.10 mph60%29.95 "Hg10 mi
10:50 PM64 °FPassing clouds.5 mph64%29.95 "HgN/A
10:20 PM63 °FClear.3 mph83%29.95 "Hg10 mi
9:50 PM64 °FClear.2 mph88%29.95 "Hg10 mi
9:20 PM64 °FClear.7 mph83%29.95 "Hg10 mi
8:50 PM66 °FSunny.9 mph73%29.92 "Hg10 mi
8:20 PM66 °FSunny.9 mph78%29.92 "Hg10 mi
7:50 PM68 °FSunny.8 mph69%29.92 "Hg10 mi
7:20 PM68 °FPassing clouds.5 mph73%29.92 "HgN/A
6:50 PM68 °FPassing clouds.5 mph73%29.92 "HgN/A
6:20 PM70 °FSunny.12 mph64%29.95 "Hg10 mi
Weather by CustomWeather, © 2016

See weather overviewHow to use our weather pages